Weather History for Amberley Military, Queensland

Change the Weather History Date:

Monday, October 21, 2013

  Actual Average Record
Temperature  
Mean Temperature 72 °F -  
Max Temperature 86 °F - - ()
Min Temperature 59 °F - - ()
Cooling Degree Days 8    
Growing Degree Days 22 (Base 50)    
Moisture  
Dew Point 60 °F    
Average Humidity 71    
Maximum Humidity 100    
Minimum Humidity 40    
Precipitation  
Precipitation 0.00 in - - ()
Sea Level Pressure  
Sea Level Pressure 30.07 in    
Wind  
Wind Speed 4 mph ()    
Max Wind Speed 16 mph    
Max Gust Speed -    
Visibility 6.2 miles    
Events      
T = Trace of Precipitation, MM = Missing Value Source: Averaged Metar Reports

Daily Weather History Graph

Daily Weather History Graph

Search for Another Location

Airport:

Trip Planner

Search our weather history database for the weather conditions in past years. The results will help you decide how hot, cold, wet, or windy it might be!

Date:

Astronomy

Oct. 21, 2013 Rise Set
Actual Time 5:07 AM AEST 6:00 PM AEST
Civil Twilight 4:43 AM AEST 6:24 PM AEST
Nautical Twilight 4:15 AM AEST 6:53 PM AEST
Astronomical Twilight 3:46 AM AEST 7:22 PM AEST
Moon 8:07 PM AEST (10/21) 6:25 AM AEST (10/21)
Length of Visible Light 13h 41m
Length of Day
12h 53m
Waning Gibbous, 95% of the Moon is Illuminated
Oct 21
Waning Gibbous
Oct 27
Last Quarter
Nov 3
New
Nov 10
First Quarter
Nov 18
Full

Hourly Weather History & Observations

Time (AEST) Temp. Heat Index Dew Point Humidity Pressure Visibility Wind Dir Wind Speed Gust Speed Precip Events Conditions
12:00 AM 60.8 °F - 59.0 °F 94% 30.12 in 6.2 mi North - - N/A   Scattered Clouds
12:30 AM 62.6 °F - 60.8 °F 94% 30.12 in 6.2 mi North - - N/A   Scattered Clouds
1:00 AM 60.8 °F - 59.0 °F 94% 30.09 in 6.2 mi North - - N/A   Unknown
1:30 AM 59.0 °F - 59.0 °F 100% 30.09 in 6.2 mi North - - N/A   Unknown
2:00 AM 60.8 °F - 59.0 °F 94% 30.09 in 6.2 mi North - - N/A   Mostly Cloudy
2:30 AM 60.8 °F - 59.0 °F 94% 30.09 in 6.2 mi North - - N/A   Scattered Clouds
3:00 AM 60.8 °F - 59.0 °F 94% 30.09 in 6.2 mi North - - N/A   Scattered Clouds
3:30 AM 60.8 °F - 59.0 °F 94% 30.09 in 6.2 mi North - - N/A   Mostly Cloudy
4:00 AM 60.8 °F - 60.8 °F 100% 30.09 in 6.2 mi North - - N/A   Mostly Cloudy
4:30 AM 60.8 °F - 59.0 °F 94% 30.09 in 6.2 mi North - - N/A   Scattered Clouds
5:00 AM 60.8 °F - 60.8 °F 100% 30.09 in 6.2 mi North - - N/A   Mostly Cloudy
5:30 AM 60.8 °F - 60.8 °F 100% 30.12 in 6.2 mi North - - N/A   Scattered Clouds
6:00 AM 62.6 °F - 60.8 °F 94% 30.12 in 6.2 mi Calm Calm - N/A   Mostly Cloudy
6:30 AM 64.4 °F - 62.6 °F 94% 30.12 in 6.2 mi Calm Calm - N/A   Mostly Cloudy
7:00 AM 68.0 °F - 62.6 °F 83% 30.12 in 6.2 mi Calm Calm - N/A   Scattered Clouds
7:30 AM 71.6 °F - 64.4 °F 78% 30.12 in 6.2 mi West 3.5 mph - N/A   Partly Cloudy
8:00 AM 73.4 °F - 62.6 °F 69% 30.12 in - North - - N/A   Partly Cloudy
8:30 AM 75.2 °F - 60.8 °F 61% 30.12 in 6.2 mi North - - N/A   Scattered Clouds
9:00 AM 78.8 °F - 60.8 °F 54% 30.12 in 6.2 mi NE 9.2 mph - N/A   Partly Cloudy
9:30 AM 77.0 °F - 59.0 °F 54% 30.12 in 6.2 mi NNE 11.5 mph - N/A   Scattered Clouds
10:00 AM 77.0 °F - 59.0 °F 54% 30.09 in - North - - N/A   Mostly Cloudy
11:00 AM 80.6 °F 81.1 °F 59.0 °F 48% 30.09 in - North - - N/A   Scattered Clouds
11:30 AM 80.6 °F 80.8 °F 57.2 °F 45% 30.06 in - North - - N/A   Clear
12:00 PM 80.6 °F 80.8 °F 57.2 °F 45% 30.06 in - North - - N/A   Clear
12:30 PM 84.2 °F 83.5 °F 57.2 °F 40% 30.04 in - North - - N/A   Clear
1:00 PM 82.4 °F 82.0 °F 57.2 °F 42% 30.04 in - North - - N/A   Clear
1:30 PM - - - N/A% 0.00 in - North - - N/A   Clear
2:00 PM 86.0 °F 85.4 °F 59.0 °F 40% 30.01 in - ENE 6.9 mph - N/A   Clear
2:30 PM 84.2 °F 83.5 °F 57.2 °F 40% 30.01 in - East 6.9 mph - N/A   Clear
3:00 PM 84.2 °F 83.8 °F 59.0 °F 42% 29.98 in - North - - N/A   Clear
3:30 PM 84.2 °F 83.8 °F 59.0 °F 42% 29.98 in - ENE 13.8 mph - N/A   Clear
4:00 PM 82.4 °F 82.5 °F 59.0 °F 45% 29.98 in - North - - N/A   Clear
4:30 PM 80.6 °F 81.1 °F 59.0 °F 48% 29.98 in - NE 16.1 mph - N/A   Clear
5:00 PM 78.8 °F - 59.0 °F 51% 29.98 in - NE 13.8 mph - N/A   Clear
5:30 PM 77.0 °F - 59.0 °F 54% 30.01 in - North - - N/A   Clear
6:00 PM 75.2 °F - 59.0 °F 57% 30.01 in - North - - N/A   Clear
6:30 PM 73.4 °F - 59.0 °F 61% 30.01 in - North - - N/A   Clear
7:00 PM 71.6 °F - 59.0 °F 64% 30.04 in - North - - N/A   Clear
7:30 PM 71.6 °F - 60.8 °F 69% 30.04 in - North - - N/A   Clear
8:00 PM 69.8 °F - 60.8 °F 73% 30.04 in 6.2 mi North - - N/A   Unknown
8:30 PM 69.8 °F - 60.8 °F 73% 30.06 in 6.2 mi North - - N/A   Unknown
9:00 PM 69.8 °F - 60.8 °F 73% 30.06 in 6.2 mi North - - N/A   Unknown
9:30 PM 68.0 °F - 60.8 °F 78% 30.06 in 6.2 mi North - - N/A   Unknown
10:00 PM 68.0 °F - 60.8 °F 78% 30.06 in 6.2 mi North - - N/A   Unknown
10:30 PM 66.2 °F - 62.6 °F 88% 30.06 in 6.2 mi North - - N/A   Unknown
11:00 PM 62.6 °F - 59.0 °F 88% 30.06 in 6.2 mi North - - N/A   Unknown
11:30 PM 59.0 °F - 57.2 °F 94% 30.06 in 6.2 mi North - - N/A   Unknown